Hourly Weather Dzierslawice

Today, 12 May, Wednesday

Time Temperature Precipitation Wind Pressure Humidity
00:00 +20°C° 0 mm 4 mps 750 mmHg 78%
01:00 +19°C° 0 mm 3 mps 750 mmHg 83%
02:00 +18°C° 0 mm 2 mps 750 mmHg 86%
03:00 +17°C° 0 mm 2 mps 751 mmHg 90%
04:00 +16°C° 0 mm 2 mps 751 mmHg 93%
05:00 +17°C° 0 mm 3 mps 751 mmHg 91%
06:00 +17°C° 0 mm 3 mps 752 mmHg 89%
07:00 +17°C° 0 mm 4 mps 752 mmHg 87%
08:00 +17°C° 0 mm 3 mps 752 mmHg 85%
09:00 +18°C° 0 mm 3 mps 753 mmHg 82%
10:00 +18°C° 0 mm 2 mps 753 mmHg 79%
11:00 +18°C° 0 mm 2 mps 753 mmHg 76%
12:00 +19°C° 0 mm 2 mps 753 mmHg 73%
13:00 +20°C° 0 mm 2 mps 753 mmHg 71%
14:00 +19°C° 0 mm 2 mps 753 mmHg 72%
15:00 +19°C° 0 mm 2 mps 753 mmHg 73%
16:00 +19°C° 0 mm 2 mps 753 mmHg 74%
17:00 +19°C° 0.1 mm 3 mps 752 mmHg 78%
18:00 +18°C° 0.1 mm 3 mps 752 mmHg 81%
19:00 +18°C° 0.1 mm 3 mps 752 mmHg 85%
20:00 +17°C° 0.8 mm 4 mps 752 mmHg 88%
21:00 +15°C° 0.8 mm 4 mps 752 mmHg 91%
22:00 +14°C° 0.8 mm 5 mps 752 mmHg 94%
23:00 +14°C° 0.6 mm 4 mps 751 mmHg 95%

Tomorrow, 13 May, Thursday

Time Temperature Precipitation Wind Pressure Humidity
00:00 +13°C° 0.6 mm 4 mps 751 mmHg 96%
01:00 +13°C° 0.6 mm 3 mps 751 mmHg 97%
02:00 +13°C° 0 mm 3 mps 750 mmHg 97%
03:00 +13°C° 0 mm 3 mps 750 mmHg 97%
04:00 +13°C° 0 mm 3 mps 749 mmHg 97%
05:00 +13°C° 0 mm 3 mps 749 mmHg 94%
06:00 +13°C° 0 mm 4 mps 749 mmHg 91%
07:00 +14°C° 0 mm 4 mps 749 mmHg 88%
08:00 +15°C° 0 mm 4 mps 749 mmHg 82%
09:00 +17°C° 0 mm 4 mps 749 mmHg 76%
10:00 +18°C° 0 mm 4 mps 748 mmHg 71%
11:00 +18°C° 0 mm 4 mps 748 mmHg 68%
12:00 +19°C° 0 mm 4 mps 748 mmHg 66%
13:00 +19°C° 0 mm 3 mps 748 mmHg 64%
14:00 +19°C° 0 mm 3 mps 748 mmHg 67%
15:00 +19°C° 0 mm 3 mps 747 mmHg 70%
16:00 +18°C° 0 mm 2 mps 747 mmHg 72%
17:00 +17°C° 0.1 mm 3 mps 747 mmHg 78%
18:00 +16°C° 0.1 mm 3 mps 748 mmHg 84%
19:00 +14°C° 0.1 mm 3 mps 748 mmHg 90%
20:00 +12°C° 0 mm 3 mps 748 mmHg 92%
21:00 +11°C° 0 mm 3 mps 748 mmHg 93%
22:00 +10°C° 0 mm 4 mps 749 mmHg 95%
23:00 +10°C° 0 mm 4 mps 749 mmHg 95%

Day after tomorrow, 14 May, Friday

Time Temperature Precipitation Wind Pressure Humidity
00:00 +10°C° 0 mm 4 mps 749 mmHg 94%
01:00 +10°C° 0 mm 4 mps 749 mmHg 93%
02:00 +8°C° 0 mm 4 mps 749 mmHg 93%
03:00 +9°C° 0 mm 3 mps 749 mmHg 94%
04:00 +9°C° 0 mm 3 mps 749 mmHg 94%
05:00 +8°C° 0.1 mm 4 mps 749 mmHg 93%
06:00 +8°C° 0.1 mm 4 mps 750 mmHg 92%
07:00 +8°C° 0.1 mm 4 mps 750 mmHg 92%
08:00 +8°C° 0.3 mm 4 mps 750 mmHg 92%
09:00 +8°C° 0.3 mm 4 mps 751 mmHg 92%
10:00 +8°C° 0.3 mm 4 mps 751 mmHg 92%
11:00 +8°C° 0.2 mm 4 mps 751 mmHg 92%
12:00 +8°C° 0.2 mm 4 mps 752 mmHg 92%
13:00 +8°C° 0.2 mm 4 mps 752 mmHg 92%
14:00 +8°C° 0.1 mm 4 mps 752 mmHg 89%
15:00 +10°C° 0.1 mm 4 mps 752 mmHg 86%
16:00 +10°C° 0.1 mm 4 mps 752 mmHg 83%
17:00 +10°C° 0 mm 4 mps 752 mmHg 84%
18:00 +10°C° 0 mm 3 mps 752 mmHg 84%
19:00 +10°C° 0 mm 3 mps 752 mmHg 85%
20:00 +9°C° 0 mm 3 mps 753 mmHg 88%
21:00 +8°C° 0 mm 3 mps 753 mmHg 91%
22:00 +7°C° 0 mm 2 mps 753 mmHg 94%
23:00 +7°C° 0 mm 2 mps 753 mmHg 95%

15 May, Saturday

Time Temperature Precipitation Wind Pressure Humidity
00:00 +6°C° 0 mm 2 mps 753 mmHg 95%
01:00 +6°C° 0 mm 2 mps 754 mmHg 95%
02:00 +6°C° 0 mm 2 mps 754 mmHg 96%
03:00 +5°C° 0 mm 2 mps 754 mmHg 96%
04:00 +5°C° 0 mm 2 mps 754 mmHg 96%
05:00 +7°C° 0 mm 2 mps 754 mmHg 89%
06:00 +9°C° 0 mm 2 mps 754 mmHg 83%
07:00 +10°C° 0 mm 2 mps 754 mmHg 77%
08:00 +13°C° 0 mm 2 mps 754 mmHg 71%
09:00 +15°C° 0 mm 2 mps 754 mmHg 65%
10:00 +17°C° 0 mm 2 mps 754 mmHg 59%
11:00 +17°C° 0.1 mm 2 mps 754 mmHg 58%
12:00 +18°C° 0.1 mm 2 mps 754 mmHg 56%
13:00 +19°C° 0.1 mm 1 mps 754 mmHg 54%
14:00 +19°C° 0.2 mm 1 mps 754 mmHg 56%
15:00 +19°C° 0.2 mm 1 mps 753 mmHg 57%
16:00 +17°C° 0.2 mm 0 mps 753 mmHg 58%
17:00 +16°C° 0.2 mm 0 mps 753 mmHg 64%
18:00 +16°C° 0.2 mm 1 mps 753 mmHg 70%
19:00 +15°C° 0.2 mm 1 mps 753 mmHg 76%
20:00 +14°C° 0.2 mm 1 mps 754 mmHg 79%
21:00 +13°C° 0.2 mm 1 mps 754 mmHg 83%
22:00 +13°C° 0.2 mm 1 mps 754 mmHg 86%
23:00 +12°C° 0.4 mm 1 mps 754 mmHg 89%

16 May, Sunday

Time Temperature Precipitation Wind Pressure Humidity
00:00 +12°C° 0.4 mm 1 mps 754 mmHg 91%
01:00 +12°C° 0.4 mm 1 mps 754 mmHg 94%
02:00 +12°C° 0.5 mm 1 mps 754 mmHg 94%
03:00 +12°C° 0.5 mm 1 mps 754 mmHg 95%
04:00 +12°C° 0.5 mm 1 mps 754 mmHg 95%
05:00 +12°C° 0.4 mm 1 mps 755 mmHg 94%
06:00 +12°C° 0.4 mm 1 mps 755 mmHg 93%
07:00 +12°C° 0.4 mm 1 mps 755 mmHg 92%
08:00 +13°C° 0.3 mm 1 mps 755 mmHg 88%
09:00 +14°C° 0.3 mm 1 mps 755 mmHg 83%
10:00 +15°C° 0.3 mm 2 mps 755 mmHg 79%
11:00 +16°C° 0.4 mm 2 mps 755 mmHg 74%
12:00 +17°C° 0.4 mm 2 mps 755 mmHg 68%
13:00 +18°C° 0.4 mm 2 mps 755 mmHg 63%
14:00 +19°C° 0.4 mm 1 mps 754 mmHg 63%
15:00 +19°C° 0.4 mm 1 mps 754 mmHg 63%
16:00 +19°C° 0.4 mm 1 mps 754 mmHg 63%
17:00 +18°C° 0.4 mm 1 mps 754 mmHg 69%
18:00 +16°C° 0.4 mm 1 mps 754 mmHg 75%
19:00 +15°C° 0.4 mm 1 mps 754 mmHg 80%
20:00 +14°C° 0 mm 1 mps 754 mmHg 83%
21:00 +13°C° 0 mm 1 mps 754 mmHg 85%
22:00 +12°C° 0 mm 1 mps 754 mmHg 88%
23:00 +11°C° 0 mm 1 mps 754 mmHg 90%

17 May, Monday

Time Temperature Precipitation Wind Pressure Humidity
00:00 +11°C° 0 mm 1 mps 754 mmHg 92%
01:00 +10°C° 0 mm 2 mps 754 mmHg 93%
02:00 +9°C° 0 mm 2 mps 754 mmHg 94%
03:00 +8°C° 0 mm 2 mps 754 mmHg 95%
04:00 +8°C° 0 mm 2 mps 753 mmHg 96%
05:00 +9°C° 0 mm 2 mps 753 mmHg 93%
06:00 +10°C° 0 mm 3 mps 754 mmHg 89%
07:00 +11°C° 0 mm 3 mps 754 mmHg 86%
08:00 +13°C° 0 mm 3 mps 753 mmHg 78%
09:00 +15°C° 0 mm 4 mps 753 mmHg 70%
10:00 +17°C° 0 mm 4 mps 753 mmHg 62%
11:00 +18°C° 0.2 mm 4 mps 753 mmHg 58%
12:00 +18°C° 0.2 mm 4 mps 753 mmHg 55%
13:00 +19°C° 0.2 mm 3 mps 753 mmHg 51%
14:00 +18°C° 0.2 mm 3 mps 753 mmHg 55%
15:00 +18°C° 0.2 mm 3 mps 753 mmHg 60%
16:00 +17°C° 0.2 mm 3 mps 753 mmHg 64%
17:00 +16°C° 0.4 mm 3 mps 753 mmHg 71%
18:00 +15°C° 0.4 mm 2 mps 753 mmHg 78%
19:00 +14°C° 0.4 mm 2 mps 753 mmHg 85%
20:00 +13°C° 0 mm 2 mps 754 mmHg 87%
21:00 +12°C° 0 mm 2 mps 754 mmHg 90%
22:00 +10°C° 0 mm 2 mps 754 mmHg 92%
23:00 +10°C° 0.1 mm 2 mps 755 mmHg 93%
Show more

We Need Your Consent

Meteoprog and our Service Providers may store and access personal data such as cookies, device identifiers or other similar technologies on your device and process such data to personalise content and ads, as well as provide social media features and to analyse the traffic.

  • Store and/or access information on your device

    Cookies, device identifiers or other information can be stored or accessed on your device for the purposes indicated above.

  • Personalised ads and content, ad and content measurement, audience insights, and products development

    Ads and content can be personalised based on a profile. More data can be added to better personalise ads and content. Ad and content performance can be measured. Insights about the audience who saw the ads and content can be derived. Such data can be used to develop or improve user’s experience, systems and software.

By clicking ‘I Agree’ you will allow the use of indicated cookies, device identifiers, web beacons or other similar technologies. Your settings can be changed in the browser on your device.

For certain purposes, legitimate interests may be relied on, rather than consent. You can read more about this in our Privacy and Cookie Policy.